#timestamp,LO_Frequency,Hit,Temp,Hum 
1479070815.1,286047019.7,N,0.0,0.0
1479070835.9,286047022.0,N,0.0,0.0
1479070855.7,286047023.5,N,0.0,0.0
1479070875.5,286047020.7,N,0.0,0.0
1479070895.4,286047022.0,N,0.0,0.0
1479070915.2,286047019.3,N,0.0,0.0
1479070935.1,286047019.2,N,0.0,0.0
1479070936.0,286047019.2,N,0.0,0.0
1479070955.8,286047017.4,N,0.0,0.0
1479070975.6,286047019.4,N,0.0,0.0
1479070995.5,286047019.1,N,0.0,0.0
1479071015.3,286047019.5,N,0.0,0.0
1479071035.1,286047020.1,N,0.0,0.0
1479071055.9,286047019.6,N,0.0,0.0
1479071075.7,286047020.2,N,0.0,0.0
1479071095.5,286047021.8,N,0.0,0.0
1479071115.4,286047021.8,N,0.0,0.0
1479071135.2,286047021.5,N,0.0,0.0
1479071155.1,286047019.5,N,0.0,0.0
1479071156.0,286047019.5,N,0.0,0.0
1479071175.8,286047018.9,N,0.0,0.0
1479071195.6,286047019.2,N,0.0,0.0
1479071215.5,286047018.2,N,0.0,0.0
1479071235.3,286047018.5,N,0.0,0.0
1479071255.1,286047019.9,N,0.0,0.0
1479071275.9,286047019.3,N,0.0,0.0
1479071295.7,286047021.7,N,0.0,0.0
1479071315.6,286047021.4,N,0.0,0.0
1479071335.4,286047021.3,N,0.0,0.0
1479071355.2,286047023.3,N,0.0,0.0
1479071375.1,286047020.9,N,0.0,0.0
1479071376.0,286047020.9,N,0.0,0.0
1479071395.8,286047022.8,N,0.0,0.0
1479071415.6,286047024.5,N,0.0,0.0
1479071435.5,286047026.3,N,0.0,0.0
1479071455.3,286047026.5,N,0.0,0.0
1479071475.2,286047026.8,N,0.0,0.0
1479071495.9,286047024.0,N,0.0,0.0
1479071515.7,286047026.7,N,0.0,0.0
1479071535.6,286047025.5,N,0.0,0.0
1479071555.4,286047025.7,N,0.0,0.0
1479071575.2,286047028.1,N,0.0,0.0
1479071595.1,286047028.4,N,0.0,0.0
1479071596.0,286047028.4,N,0.0,0.0
1479071615.8,286047024.6,N,0.0,0.0
1479071635.7,286047026.5,N,0.0,0.0
1479071655.5,286047028.2,N,0.0,0.0
1479071675.3,286047028.1,N,0.0,0.0
1479071695.2,286047025.8,N,0.0,0.0
1479071715.9,286047027.1,N,0.0,0.0
1479071735.7,286047025.3,N,0.0,0.0
1479071755.6,286047028.5,N,0.0,0.0
1479071775.4,286047030.9,N,0.0,0.0
1479071795.3,286047030.7,N,0.0,0.0
1479071815.1,286047027.4,N,0.0,0.0
1479071816.0,286047027.4,N,0.0,0.0
1479071835.8,286047029.4,N,0.0,0.0
1479071855.7,286047028.9,N,0.0,0.0
1479071875.5,286047030.6,N,0.0,0.0
1479071895.3,286047032.0,N,0.0,0.0
1479071915.2,286047034.4,N,0.0,0.0
1479071935.0,286047031.7,N,0.0,0.0
1479071935.9,286047031.7,N,0.0,0.0
1479071955.8,286047032.3,N,0.0,0.0
1479071975.6,286047032.9,N,0.0,0.0
1479071995.4,286047034.4,N,0.0,0.0
1479072015.3,286047034.0,N,0.0,0.0
1479072035.1,286047033.3,N,0.0,0.0
1479072055.8,286047032.4,N,0.0,0.0
1479072075.7,286047034.1,N,0.0,0.0
1479072095.5,286047034.9,N,0.0,0.0
1479072115.4,286047037.5,N,0.0,0.0
1479072135.2,286047037.0,N,0.0,0.0
1479072155.0,286047037.0,N,0.0,0.0
1479072155.9,286047037.0,N,0.0,0.0
1479072175.8,286047038.1,N,0.0,0.0
1479072195.6,286047038.9,N,0.0,0.0
1479072215.4,286047038.4,N,0.0,0.0
1479072235.3,286047040.5,N,0.0,0.0
1479072255.1,286047040.5,N,0.0,0.0
1479072275.9,286047036.9,N,0.0,0.0
1479072295.7,286047036.7,N,0.0,0.0
1479072315.5,286047041.1,N,0.0,0.0
1479072335.4,286047042.5,N,0.0,0.0
1479072355.2,286047040.9,N,0.0,0.0
1479072375.0,286047037.6,N,0.0,0.0
1479072375.9,286047037.6,N,0.0,0.0
1479072395.8,286047040.7,N,0.0,0.0
1479072415.6,286047042.5,N,0.0,0.0
1479072435.5,286047044.0,N,0.0,0.0
1479072455.3,286047044.1,N,0.0,0.0
1479072475.1,286047041.4,N,0.0,0.0
1479072495.9,286047040.2,N,0.0,0.0
1479072515.7,286047044.3,N,0.0,0.0
1479072535.5,286047041.5,N,0.0,0.0
1479072555.4,286047040.8,N,0.0,0.0
1479072575.2,286047039.8,N,0.0,0.0
1479072595.1,286047043.2,N,0.0,0.0
1479072596.0,286047043.2,N,0.0,0.0
1479072615.8,286047045.4,N,0.0,0.0
1479072635.6,286047043.2,N,0.0,0.0
1479072655.5,286047045.7,N,0.0,0.0
1479072675.3,286047047.5,N,0.0,0.0
1479072695.1,286047043.2,N,0.0,0.0
1479072715.9,286047043.1,N,0.0,0.0
1479072735.7,286047042.9,N,0.0,0.0
1479072755.6,286047043.8,N,0.0,0.0
1479072775.4,286047043.0,N,0.0,0.0
1479072795.2,286047045.9,N,0.0,0.0
1479072815.1,286047044.2,N,0.0,0.0
1479072816.0,286047044.2,N,0.0,0.0
1479072835.8,286047045.6,N,0.0,0.0
1479072855.6,286047046.3,N,0.0,0.0
1479072875.5,286047049.9,N,0.0,0.0
1479072895.3,286047050.2,N,0.0,0.0
1479072915.1,286047047.7,N,0.0,0.0
1479072935.9,286047048.6,N,0.0,0.0
1479072955.7,286047047.4,N,0.0,0.0
1479072975.6,286047046.9,N,0.0,0.0
1479072995.4,286047046.9,N,0.0,0.0
1479073015.2,286047047.9,N,0.0,0.0
1479073035.1,286047048.0,N,0.0,0.0
1479073036.0,286047048.0,N,0.0,0.0
1479073055.8,286047050.7,N,0.0,0.0
1479073075.6,286047049.8,N,0.0,0.0
1479073095.5,286047051.9,N,0.0,0.0
1479073115.3,286047052.2,N,0.0,0.0
1479073135.2,286047049.6,N,0.0,0.0
1479073155.9,286047050.2,N,0.0,0.0
1479073175.7,286047050.6,N,0.0,0.0
1479073195.6,286047051.8,N,0.0,0.0
1479073215.4,286047051.5,N,0.0,0.0
1479073235.2,286047051.2,N,0.0,0.0
1479073255.1,286047052.0,N,0.0,0.0
1479073256.0,286047052.0,N,0.0,0.0
1479073275.8,286047053.6,N,0.0,0.0
1479073295.7,286047053.0,N,0.0,0.0
1479073315.5,286047055.5,N,0.0,0.0
1479073335.3,286047055.5,N,0.0,0.0
1479073355.2,286047052.5,N,0.0,0.0
1479073375.0,286047055.4,N,0.0,0.0
1479073375.9,286047055.4,N,0.0,0.0
1479073395.7,286047057.2,N,0.0,0.0
1479073415.6,286047056.7,N,0.0,0.0
1479073435.4,286047054.6,N,0.0,0.0
1479073455.3,286047057.1,N,0.0,0.0
1479073475.1,286047056.1,N,0.0,0.0
1479073476.0,286047056.1,N,0.0,0.0
1479073495.8,286047058.1,N,0.0,0.0
1479073515.7,286047056.1,N,0.0,0.0
1479073535.5,286047056.0,N,0.0,0.0
1479073555.3,286047055.9,N,0.0,0.0
1479073575.2,286047058.2,N,0.0,0.0
1479073595.0,286047057.5,N,0.0,0.0
1479073595.9,286047057.5,N,0.0,0.0
1479073615.8,286047060.4,N,0.0,0.0
1479073635.6,286047059.6,N,0.0,0.0
1479073655.4,286047058.7,N,0.0,0.0
1479073675.3,286047057.8,N,0.0,0.0
1479073695.1,286047059.8,N,0.0,0.0
1479073715.9,286047059.0,N,0.0,0.0
1479073735.7,286047061.2,N,0.0,0.0
1479073755.5,286047059.4,N,0.0,0.0
1479073775.4,286047061.9,N,0.0,0.0
1479073795.2,286047059.8,N,0.0,0.0
1479073815.0,286047061.5,N,0.0,0.0
1479073815.9,286047061.5,N,0.0,0.0
1479073835.8,286047061.1,N,0.0,0.0
1479073855.6,286047063.4,N,0.0,0.0
1479073875.5,286047063.1,N,0.0,0.0
1479073895.3,286047062.7,N,0.0,0.0
1479073915.1,286047062.2,N,0.0,0.0
1479073935.9,286047062.7,N,0.0,0.0
1479073955.7,286047062.1,N,0.0,0.0
1479073975.5,286047062.7,N,0.0,0.0
1479073995.4,286047065.1,N,0.0,0.0
1479074015.2,286047064.0,N,0.0,0.0
1479074035.1,286047065.1,N,0.0,0.0
1479074036.0,286047065.1,N,0.0,0.0
1479074055.8,286047062.2,N,0.0,0.0
1479074075.6,286047062.4,N,0.0,0.0
1479074095.5,286047062.5,N,0.0,0.0
1479074115.3,286047064.4,N,0.0,0.0
1479074135.1,286047066.3,N,0.0,0.0
1479074155.9,286047065.7,N,0.0,0.0
1479074175.7,286047065.3,N,0.0,0.0
1479074195.5,286047068.2,N,0.0,0.0
1479074215.4,286047068.1,N,0.0,0.0
1479074235.2,286047068.2,N,0.0,0.0
1479074255.1,286047068.4,N,0.0,0.0
1479074256.0,286047068.4,N,0.0,0.0
1479074275.8,286047067.8,N,0.0,0.0
1479074295.6,286047069.4,N,0.0,0.0
1479074315.5,286047068.7,N,0.0,0.0
1479074335.3,286047071.6,N,0.0,0.0
1479074355.1,286047071.4,N,0.0,0.0
1479074375.9,286047068.8,N,0.0,0.0
1479074395.7,286047070.8,N,0.0,0.0
